Location: Unspecified
(47.9110°N, 14.3980°E)
Time: 15:35:13
(UTC+00:00)

SL-16 R/B - Pass Details

Date: 06 August 2020
Orbit: 843 x 845 km, 71.0° (Epoch: 18 September)

Event Time Altitude Azimuth Distance (km) Brightness Sun altitude
Rises 20:19:25 0° 337° (NNW) 3,416 6.8 -15.5°
Reaches altitude 10° 20:22:17 10° 349° (N) 2,478 5.6 -15.8°
Maximum altitude 20:27:03 27° 46° (NE) 1,585 3.6 -16.3°
Enters shadow 20:30:37 15° 95° (E) 2,130 3.9 -16.7°
